Tracking 19575 objects as of 18-Feb-2019
HD Live streaming from Space Station
objects crossing your sky now

THORAD DELTA 1 DEB

Track THORAD DELTA 1 DEB now!
10-day predictions


NORAD ID: 19183
Int'l Code: 1974-089FD
Perigee: 1,036.5 km
Apogee: 1,328.3 km
Inclination: 103.5 °
Period: 108.9 minutes
Semi major axis: 7553 km
RCS: 0.0084 m2 (small)
Launch date: November 15, 1974
Source: United States (US)
Launch site: AIR FORCE WESTERN TEST RANGE (AFWTR)

Note: This is SATELLITE DEBRIS
aabbcc
Your satellite tracking list
Your tracking list is empty




NASA's NSSDC Master Catalog

Two Line Element Set (TLE):
1 19183U 74089FD  19048.23524569 +.00000473 +00000-0 +11763-2 0  9992
2 19183 103.5438 143.9194 0193199 267.0796 152.3309 13.22483381426356
Source of the keplerian elements: AFSPC